This is the latest recevied weather packets stored in our database for station/object K1JO. If no packets are shown the sender has not sent any weather packets the latest 10 day(s).
| Time | Temp. | Humidity | Pressure | Rain* | Wind** | Luminosity | Snow |
|---|---|---|---|---|---|---|---|
| 1778011325 | 21.11° C | 60% | 1000.7 hPa | 0 mm | - | 357 W/m² | - |
| 1778011021 | 21.11° C | 59% | 1000.5 hPa | 0 mm | - | 450 W/m² | - |
| 1778010718 | 20.56° C | 62% | 1000.7 hPa | 0 mm | - | 440 W/m² | - |
| 1778010415 | 20.56° C | 61% | 1000.8 hPa | 0 mm | - | 466 W/m² | - |
| 1778010111 | 20.56° C | 61% | 1000.9 hPa | 0 mm | - | 466 W/m² | - |
| 1778009808 | 21.11° C | 58% | 1000.8 hPa | 0 mm | - | 511 W/m² | - |
| 1778009505 | 21.11° C | 59% | 1000.7 hPa | 0 mm | - | 521 W/m² | - |
| 1778009203 | 20.56° C | 60% | 1000.7 hPa | 0 mm | - | 510 W/m² | - |
| 1778008901 | 21.67° C | 59% | 1000.8 hPa | 0 mm | - | 490 W/m² | - |
| 1778008599 | 20.56° C | 59% | 1000.9 hPa | 0 mm | - | 557 W/m² | - |
| 1778008297 | 21.11° C | 59% | 1000.9 hPa | 0 mm | - | 551 W/m² | - |
| 1778007993 | 20.56° C | 60% | 1001 hPa | 0 mm | - | 574 W/m² | - |
| 1778007687 | 21.11° C | 59% | 1001 hPa | 0 mm | - | 530 W/m² | - |
| 1778007384 | 21.11° C | 58% | 1001 hPa | 0 mm | - | 573 W/m² | - |
| 1778007080 | 21.67° C | 59% | 1000.9 hPa | 0 mm | - | 561 W/m² | - |
| 1778006777 | 21.67° C | 58% | 1000.8 hPa | 0 mm | - | 603 W/m² | - |
| 1778006474 | 21.67° C | 56% | 1000.7 hPa | 0 mm | - | 584 W/m² | - |
| 1778006171 | 21.11° C | 58% | 1001.1 hPa | 0 mm | - | 628 W/m² | - |
| 1778005869 | 21.11° C | 57% | 1001 hPa | 0 mm | - | 627 W/m² | - |
| 1778005564 | 21.11° C | 57% | 1001.2 hPa | 0 mm | - | 634 W/m² | - |
| 1778005262 | 21.11° C | 58% | 1001.1 hPa | 0 mm | - | 647 W/m² | - |
| 1778004958 | 21.11° C | 60% | 1001.1 hPa | 0 mm | - | 653 W/m² | - |
| 1778004655 | 21.11° C | 58% | 1001.4 hPa | 0 mm | - | 644 W/m² | - |
| 1778004351 | 20.56° C | 59% | 1001.5 hPa | 0 mm | - | 665 W/m² | - |
| 1778004049 | 20° C | 59% | 1001.5 hPa | 0 mm | - | 683 W/m² | - |
* Rain latest hour (hover to see other rain measurements)
** Current wind speed in m/s (hover to see current wind gust speed)